Meteo orario Abaytikau

Oggi, 8 Marzo, Lunedi

Tempo Temperatura Precipitazioni Vento Pressione Umidità
00:00 -14°C° 0 mm 3 m/s 569 mm Hg 84%
01:00 -14°C° 0 mm 3 m/s 569 mm Hg 86%
02:00 -14°C° 0 mm 3 m/s 569 mm Hg 88%
03:00 -12°C° 0 mm 2 m/s 570 mm Hg 91%
04:00 -12°C° 0.2 mm 2 m/s 570 mm Hg 91%
05:00 -12°C° 0.2 mm 2 m/s 569 mm Hg 91%
06:00 -13°C° 0.2 mm 2 m/s 569 mm Hg 92%
07:00 -12°C° 0.6 mm 2 m/s 569 mm Hg 91%
08:00 -10°C° 0.6 mm 2 m/s 570 mm Hg 91%
09:00 -10°C° 0.6 mm 3 m/s 570 mm Hg 90%
10:00 -9°C° 0.3 mm 3 m/s 570 mm Hg 90%
11:00 -8°C° 0.3 mm 3 m/s 570 mm Hg 89%
12:00 -8°C° 0.3 mm 3 m/s 570 mm Hg 89%
13:00 -8°C° 0.4 mm 3 m/s 570 mm Hg 89%
14:00 -8°C° 0.4 mm 3 m/s 569 mm Hg 90%
15:00 -7°C° 0.4 mm 2 m/s 569 mm Hg 91%
16:00 -9°C° 0.1 mm 2 m/s 568 mm Hg 92%
17:00 -10°C° 0.1 mm 2 m/s 568 mm Hg 94%
18:00 -13°C° 0.1 mm 2 m/s 567 mm Hg 96%
19:00 -13°C° 0 mm 2 m/s 567 mm Hg 95%
20:00 -14°C° 0 mm 2 m/s 567 mm Hg 94%
21:00 -15°C° 0 mm 2 m/s 567 mm Hg 92%
22:00 -16°C° 0 mm 2 m/s 566 mm Hg 91%
23:00 -16°C° 0 mm 2 m/s 566 mm Hg 90%

Domani, 9 Marzo, Martedi

Tempo Temperatura Precipitazioni Vento Pressione Umidità
00:00 -16°C° 0 mm 2 m/s 565 mm Hg 88%
01:00 -17°C° 0 mm 2 m/s 565 mm Hg 88%
02:00 -18°C° 0 mm 3 m/s 565 mm Hg 88%
03:00 -18°C° 0 mm 3 m/s 565 mm Hg 88%
04:00 -18°C° 0 mm 3 m/s 565 mm Hg 87%
05:00 -18°C° 0 mm 3 m/s 565 mm Hg 87%
06:00 -18°C° 0 mm 3 m/s 565 mm Hg 86%
07:00 -17°C° 0 mm 3 m/s 566 mm Hg 84%
08:00 -15°C° 0 mm 3 m/s 567 mm Hg 82%
09:00 -14°C° 0 mm 3 m/s 567 mm Hg 79%
10:00 -13°C° 0 mm 3 m/s 568 mm Hg 76%
11:00 -12°C° 0 mm 4 m/s 568 mm Hg 72%
12:00 -11°C° 0 mm 4 m/s 568 mm Hg 69%
13:00 -11°C° 0 mm 4 m/s 568 mm Hg 69%
14:00 -11°C° 0 mm 4 m/s 568 mm Hg 68%
15:00 -11°C° 0 mm 4 m/s 568 mm Hg 68%
16:00 -14°C° 0 mm 4 m/s 567 mm Hg 74%
17:00 -15°C° 0 mm 3 m/s 566 mm Hg 80%
18:00 -17°C° 0 mm 3 m/s 566 mm Hg 87%
19:00 -17°C° 0 mm 3 m/s 566 mm Hg 86%
20:00 -18°C° 0 mm 3 m/s 566 mm Hg 86%
21:00 -18°C° 0 mm 3 m/s 566 mm Hg 86%
22:00 -19°C° 0 mm 3 m/s 566 mm Hg 84%
23:00 -19°C° 0 mm 3 m/s 566 mm Hg 83%

Dopodomani, 10 Marzo, Mercoledi

Tempo Temperatura Precipitazioni Vento Pressione Umidità
00:00 -19°C° 0 mm 3 m/s 566 mm Hg 82%
01:00 -19°C° 0 mm 3 m/s 567 mm Hg 82%
02:00 -21°C° 0 mm 3 m/s 567 mm Hg 82%
03:00 -21°C° 0 mm 3 m/s 567 mm Hg 83%
04:00 -21°C° 0 mm 3 m/s 567 mm Hg 84%
05:00 -21°C° 0 mm 3 m/s 567 mm Hg 85%
06:00 -21°C° 0 mm 3 m/s 567 mm Hg 86%
07:00 -18°C° 0 mm 3 m/s 568 mm Hg 87%
08:00 -16°C° 0 mm 3 m/s 569 mm Hg 87%
09:00 -14°C° 0 mm 3 m/s 570 mm Hg 88%
10:00 -13°C° 0.1 mm 3 m/s 571 mm Hg 84%
11:00 -12°C° 0.1 mm 4 m/s 571 mm Hg 79%
12:00 -11°C° 0.1 mm 4 m/s 571 mm Hg 75%
13:00 -11°C° 0 mm 4 m/s 571 mm Hg 76%
14:00 -11°C° 0 mm 4 m/s 571 mm Hg 76%
15:00 -11°C° 0 mm 4 m/s 571 mm Hg 76%
16:00 -12°C° 0 mm 3 m/s 570 mm Hg 82%
17:00 -14°C° 0 mm 3 m/s 569 mm Hg 88%
18:00 -16°C° 0 mm 3 m/s 568 mm Hg 94%
19:00 -16°C° 0 mm 3 m/s 568 mm Hg 92%
20:00 -16°C° 0 mm 3 m/s 567 mm Hg 90%
21:00 -17°C° 0 mm 3 m/s 567 mm Hg 88%
22:00 -16°C° 0.1 mm 3 m/s 568 mm Hg 89%
23:00 -15°C° 0.1 mm 3 m/s 568 mm Hg 91%

11 Marzo, Giovedi

Tempo Temperatura Precipitazioni Vento Pressione Umidità
00:00 -14°C° 0.1 mm 3 m/s 568 mm Hg 92%
01:00 -14°C° 0.3 mm 3 m/s 568 mm Hg 93%
02:00 -13°C° 0.3 mm 3 m/s 568 mm Hg 93%
03:00 -13°C° 0.3 mm 3 m/s 568 mm Hg 93%
04:00 -13°C° 0.3 mm 3 m/s 568 mm Hg 93%
05:00 -13°C° 0.3 mm 3 m/s 568 mm Hg 94%
06:00 -13°C° 0.3 mm 2 m/s 567 mm Hg 94%
07:00 -12°C° 0.2 mm 2 m/s 568 mm Hg 94%
08:00 -10°C° 0.2 mm 2 m/s 568 mm Hg 93%
09:00 -9°C° 0.2 mm 2 m/s 568 mm Hg 92%
10:00 -9°C° 0.4 mm 2 m/s 568 mm Hg 93%
11:00 -8°C° 0.4 mm 2 m/s 568 mm Hg 93%
12:00 -8°C° 0.4 mm 2 m/s 568 mm Hg 94%
13:00 -8°C° 0.9 mm 2 m/s 567 mm Hg 94%
14:00 -9°C° 0.9 mm 2 m/s 567 mm Hg 95%
15:00 -9°C° 0.9 mm 2 m/s 566 mm Hg 95%
16:00 -12°C° 1.2 mm 2 m/s 566 mm Hg 96%
17:00 -13°C° 1.2 mm 2 m/s 566 mm Hg 97%
18:00 -14°C° 1.2 mm 2 m/s 566 mm Hg 97%
19:00 -12°C° 0.6 mm 1 m/s 566 mm Hg 97%
20:00 -13°C° 0.6 mm 1 m/s 566 mm Hg 97%
21:00 -13°C° 0.6 mm 1 m/s 566 mm Hg 97%
22:00 -14°C° 0.2 mm 1 m/s 566 mm Hg 97%
23:00 -15°C° 0.2 mm 1 m/s 565 mm Hg 97%

12 Marzo, Venerdi

Tempo Temperatura Precipitazioni Vento Pressione Umidità
00:00 -15°C° 0.2 mm 1 m/s 565 mm Hg 97%
01:00 -16°C° 0.2 mm 1 m/s 565 mm Hg 97%
02:00 -17°C° 0.2 mm 1 m/s 565 mm Hg 97%
03:00 -17°C° 0.2 mm 1 m/s 565 mm Hg 97%
04:00 -20°C° 0.1 mm 2 m/s 565 mm Hg 95%
05:00 -21°C° 0.1 mm 2 m/s 565 mm Hg 94%
06:00 -23°C° 0.1 mm 2 m/s 565 mm Hg 92%
07:00 -20°C° 0.1 mm 2 m/s 566 mm Hg 91%
08:00 -19°C° 0.1 mm 2 m/s 567 mm Hg 89%
09:00 -18°C° 0.1 mm 2 m/s 568 mm Hg 87%
10:00 -17°C° 0.1 mm 2 m/s 569 mm Hg 86%
11:00 -16°C° 0.1 mm 2 m/s 569 mm Hg 85%
12:00 -15°C° 0.1 mm 2 m/s 570 mm Hg 84%
13:00 -15°C° 0.1 mm 2 m/s 570 mm Hg 86%
14:00 -15°C° 0.1 mm 2 m/s 570 mm Hg 88%
15:00 -15°C° 0.1 mm 2 m/s 570 mm Hg 90%
16:00 -16°C° 0.1 mm 2 m/s 570 mm Hg 92%
17:00 -16°C° 0.1 mm 1 m/s 570 mm Hg 94%
18:00 -17°C° 0.1 mm 1 m/s 569 mm Hg 96%
19:00 -18°C° 0 mm 1 m/s 569 mm Hg 92%
20:00 -19°C° 0 mm 1 m/s 570 mm Hg 88%
21:00 -19°C° 0 mm 1 m/s 570 mm Hg 83%
22:00 -19°C° 0 mm 1 m/s 570 mm Hg 79%
23:00 -19°C° 0 mm 1 m/s 570 mm Hg 75%

13 Marzo, Sabato

Tempo Temperatura Precipitazioni Vento Pressione Umidità
00:00 -20°C° 0 mm 1 m/s 570 mm Hg 71%
01:00 -19°C° 0 mm 1 m/s 570 mm Hg 66%
02:00 -19°C° 0 mm 1 m/s 570 mm Hg 61%
03:00 -19°C° 0 mm 1 m/s 570 mm Hg 56%
04:00 -19°C° 0 mm 1 m/s 570 mm Hg 52%
05:00 -19°C° 0 mm 1 m/s 571 mm Hg 47%
06:00 -19°C° 0 mm 1 m/s 571 mm Hg 43%
07:00 -16°C° 0 mm 1 m/s 572 mm Hg 45%
08:00 -14°C° 0 mm 1 m/s 573 mm Hg 48%
09:00 -11°C° 0 mm 0 m/s 575 mm Hg 50%
10:00 -10°C° 0 mm 1 m/s 575 mm Hg 56%
11:00 -9°C° 0 mm 1 m/s 575 mm Hg 63%
12:00 -9°C° 0 mm 2 m/s 575 mm Hg 69%
13:00 -9°C° 0 mm 2 m/s 575 mm Hg 73%
14:00 -8°C° 0 mm 1 m/s 575 mm Hg 77%
15:00 -8°C° 0 mm 1 m/s 574 mm Hg 81%
16:00 -10°C° 0 mm 1 m/s 573 mm Hg 85%
17:00 -12°C° 0 mm 1 m/s 572 mm Hg 89%
18:00 -13°C° 0 mm 1 m/s 572 mm Hg 93%
19:00 -13°C° 0 mm 1 m/s 572 mm Hg 83%
20:00 -13°C° 0 mm 1 m/s 572 mm Hg 72%
21:00 -15°C° 0 mm 2 m/s 572 mm Hg 62%
22:00 -15°C° 0 mm 2 m/s 572 mm Hg 59%
23:00 -12°C° 0 mm 1 m/s 572 mm Hg 56%
Mostrare altro

Abbiamo bisogno del tuo consenso

Meteoprog e i nostri fornitori di servizi possono memorizzare e accedere a dati personali come cookie, identificatori di dispositivi o altre tecnologie simili sul tuo dispositivo e possono elaborare tali dati per personalizzare i contenuti e gli annunci, nonché fornire funzionalità dei social media e analizzarne il traffico.

  • Archiviare e/o accedere alle informazioni sul tuo dispositivo

    Cookie, identificatori di dispositivi o altre informazioni possono essere memorizzati o resi accessibili sul tuo dispositivo per le finalità sopra indicate.

  • Annunci e contenuti personalizzati, misurazione di annunci e contenuti, approfondimenti sul pubblico e sviluppo di prodotti

    Gli annunci e i contenuti possono essere personalizzati in base a un profilo. È possibile aggiungere più dati per personalizzare meglio annunci e contenuti. È possibile misurare il rendimento degli annunci e dei contenuti. È possibile ricavare informazioni sul pubblico che ha visto gli annunci e i contenuti. Tali dati possono essere utilizzati per sviluppare o migliorare l'esperienza, i sistemi e il software dell'utente.

Cliccando su “Accetto”, acconsenti all'uso di cookie, identificatori di dispositivo, web beacon o altre tecnologie simili. Puoi modificare le impostazioni nel browser del tuo dispositivo.

Per determinati scopi, è possibile fare affidamento su interessi legali, piuttosto che sul consenso. Puoi approfondire questo argomento consultando la nostra Informativa sulla privacy e sui cookie.